Time,TemperatureF,DewpointF,PressureIn,WindDirection,WindDirectionDegrees,WindSpeedMPH,WindSpeedGustMPH,Humidity,HourlyPrecipIn,Conditions,Clouds,dailyrainin,SolarRadiationWatts/m^2,SoftwareType,DateUTC
2013-01-28 00:02:00,50.6,47.8,29.97,SSE,150,0.0,6.0,90,0.00,,---,0.00,0.00,VWS V14.01,2013-01-28 06:02:00,
2013-01-28 00:07:00,50.6,47.8,29.97,SSW,206,0.0,4.0,90,0.00,,---,0.00,0.00,VWS V14.01,2013-01-28 06:07:00,
2013-01-28 00:12:00,50.7,47.9,29.97,SSE,147,6.0,6.0,90,0.00,,---,0.00,0.00,VWS V14.01,2013-01-28 06:12:00,
2013-01-28 00:17:00,50.8,48.0,29.97,SSE,150,0.0,5.0,90,0.00,,---,0.00,0.00,VWS V14.01,2013-01-28 06:17:00,
2013-01-28 00:22:00,50.9,48.1,29.97,SSE,153,5.0,7.0,90,0.00,,---,0.00,0.00,VWS V14.01,2013-01-28 06:22:00,
2013-01-28 00:27:00,51.0,48.2,29.96,SE,143,0.0,6.0,90,0.00,,---,0.00,0.00,VWS V14.01,2013-01-28 06:27:00,
2013-01-28 00:32:00,51.1,48.3,29.97,SSE,157,0.0,6.0,90,0.00,,---,0.00,0.00,VWS V14.01,2013-01-28 06:32:00,
2013-01-28 00:37:00,51.1,48.3,29.97,SSE,153,2.0,7.0,90,0.00,,---,0.00,0.00,VWS V14.01,2013-01-28 06:37:00,
2013-01-28 00:42:00,51.2,48.4,29.97,ESE,117,1.0,3.0,90,0.00,,---,0.00,0.00,VWS V14.01,2013-01-28 06:42:00,
2013-01-28 00:47:00,51.2,48.4,29.97,SSE,159,0.0,4.0,90,0.00,,---,0.00,0.00,VWS V14.01,2013-01-28 06:47:00,
2013-01-28 00:52:00,51.3,48.5,29.97,SSE,167,0.0,0.0,90,0.00,,---,0.00,0.00,VWS V14.01,2013-01-28 06:52:00,
2013-01-28 00:57:00,51.5,48.7,29.97,SSW,195,0.0,5.0,90,0.00,,---,0.00,0.00,VWS V14.01,2013-01-28 06:57:00,
2013-01-28 01:02:00,51.6,48.8,29.96,South,171,1.0,6.0,90,0.00,,---,0.00,0.00,VWS V14.01,2013-01-28 07:02:00,
2013-01-28 01:07:00,51.8,49.0,29.96,SSW,196,0.0,6.0,90,0.00,,---,0.00,0.00,VWS V14.01,2013-01-28 07:07:00,
2013-01-28 01:12:00,52.1,49.3,29.96,SSE,149,1.0,4.0,90,0.00,,---,0.00,0.00,VWS V14.01,2013-01-28 07:12:00,
2013-01-28 01:17:00,52.3,49.5,29.97,SSW,197,0.0,8.0,90,0.00,,---,0.00,0.00,VWS V14.01,2013-01-28 07:17:00,
2013-01-28 01:22:00,52.4,49.6,29.97,South,180,0.0,7.0,90,0.00,,---,0.00,0.00,VWS V14.01,2013-01-28 07:22:00,
2013-01-28 01:27:00,52.5,49.7,29.96,SW,222,0.0,2.0,90,0.00,,---,0.00,0.00,VWS V14.01,2013-01-28 07:27:00,
2013-01-28 01:32:00,52.6,49.8,29.97,South,175,0.0,5.0,90,0.00,,---,0.00,0.00,VWS V14.01,2013-01-28 07:32:00,
2013-01-28 01:37:00,52.8,49.7,29.97,South,172,0.0,3.0,89,0.00,,---,0.00,0.00,VWS V14.01,2013-01-28 07:37:00,
2013-01-28 01:42:00,52.9,50.0,29.97,South,191,0.0,7.0,90,0.00,,---,0.00,0.00,VWS V14.01,2013-01-28 07:42:00,
2013-01-28 01:47:00,52.9,49.8,29.97,SW,225,0.0,2.0,89,0.00,,---,0.00,0.00,VWS V14.01,2013-01-28 07:47:00,
2013-01-28 01:52:00,53.0,49.8,29.97,SSW,192,2.0,3.0,89,0.00,,---,0.00,0.00,VWS V14.01,2013-01-28 07:52:00,
2013-01-28 01:57:00,53.0,49.8,29.97,South,191,0.0,3.0,89,0.00,,---,0.00,0.00,VWS V14.01,2013-01-28 07:57:00,
2013-01-28 02:02:00,53.0,49.8,29.97,South,179,0.0,3.0,89,0.00,,---,0.00,0.00,VWS V14.01,2013-01-28 08:02:00,
2013-01-28 02:07:00,53.1,50.0,29.96,South,188,0.0,9.0,89,0.00,,---,0.00,0.00,VWS V14.01,2013-01-28 08:07:00,
2013-01-28 02:12:00,53.2,50.0,29.96,SSW,198,1.0,4.0,89,0.00,,---,0.00,0.00,VWS V14.01,2013-01-28 08:12:00,
2013-01-28 02:17:00,53.2,50.9,29.97,SW,228,0.0,5.0,92,0.00,,---,0.00,0.00,VWS V14.01,2013-01-28 08:17:00,
2013-01-28 02:22:00,53.3,50.2,29.96,SSW,196,0.0,1.0,89,0.00,,---,0.00,0.00,VWS V14.01,2013-01-28 08:22:00,
2013-01-28 02:27:00,53.4,50.2,29.96,SSW,200,0.0,1.0,89,0.00,,---,0.00,0.00,VWS V14.01,2013-01-28 08:27:00,
2013-01-28 02:32:00,53.5,50.3,29.96,WSW,237,4.0,7.0,89,0.00,,---,0.00,0.00,VWS V14.01,2013-01-28 08:32:00,
2013-01-28 02:37:00,53.6,50.4,29.96,South,179,0.0,5.0,89,0.00,,---,0.00,0.00,VWS V14.01,2013-01-28 08:37:00,
2013-01-28 02:42:00,53.8,50.6,29.96,SSE,147,0.0,6.0,89,0.00,,---,0.00,0.00,VWS V14.01,2013-01-28 08:42:00,
2013-01-28 02:47:00,53.9,50.7,29.96,SSW,194,1.0,7.0,89,0.00,,---,0.00,0.00,VWS V14.01,2013-01-28 08:47:00,
2013-01-28 02:52:00,54.0,50.8,29.95,SSE,164,0.0,10.0,89,0.00,,---,0.00,0.00,VWS V14.01,2013-01-28 08:52:00,
2013-01-28 02:57:00,54.1,50.9,29.96,South,191,1.0,4.0,89,0.00,,---,0.00,0.00,VWS V14.01,2013-01-28 08:57:00,
2013-01-28 03:02:00,54.3,51.1,29.95,SSW,213,6.0,9.0,89,0.00,,---,0.00,0.00,VWS V14.01,2013-01-28 09:02:00,
2013-01-28 03:07:00,54.4,51.2,29.96,SSW,199,1.0,6.0,89,0.00,,---,0.00,0.00,VWS V14.01,2013-01-28 09:07:00,
2013-01-28 03:12:00,54.5,51.3,29.95,SSE,155,0.0,6.0,89,0.00,,---,0.00,0.00,VWS V14.01,2013-01-28 09:12:00,
2013-01-28 03:17:00,54.6,51.1,29.95,SSW,206,1.0,5.0,88,0.00,,---,0.00,0.00,VWS V14.01,2013-01-28 09:17:00,
2013-01-28 03:22:00,54.7,51.2,29.95,SW,215,3.0,3.0,88,0.00,,---,0.00,0.00,VWS V14.01,2013-01-28 09:22:00,
2013-01-28 03:27:00,54.8,51.3,29.95,SW,219,0.0,8.0,88,0.00,,---,0.00,0.00,VWS V14.01,2013-01-28 09:27:00,
2013-01-28 03:32:00,54.9,51.4,29.95,SSW,200,6.0,9.0,88,0.00,,---,0.00,0.00,VWS V14.01,2013-01-28 09:32:00,
2013-01-28 03:37:00,54.9,51.4,29.95,SW,230,0.0,5.0,88,0.00,,---,0.00,0.00,VWS V14.01,2013-01-28 09:37:00,
2013-01-28 03:42:00,54.9,51.4,29.96,SSW,198,0.0,3.0,88,0.00,,---,0.00,0.00,VWS V14.01,2013-01-28 09:42:00,
2013-01-28 03:47:00,55.0,51.5,29.96,SSW,212,2.0,6.0,88,0.00,,---,0.00,0.00,VWS V14.01,2013-01-28 09:47:00,
2013-01-28 03:52:00,55.0,51.5,29.96,SSE,162,0.0,4.0,88,0.00,,---,0.00,0.00,VWS V14.01,2013-01-28 09:52:00,
2013-01-28 03:57:00,55.0,51.5,29.96,South,188,0.0,4.0,88,0.00,,---,0.00,0.00,VWS V14.01,2013-01-28 09:57:00,
2013-01-28 04:02:00,54.9,51.4,29.96,SSE,165,0.0,6.0,88,0.00,,---,0.00,0.00,VWS V14.01,2013-01-28 10:02:00,
2013-01-28 04:07:00,54.9,51.4,29.96,SW,223,0.0,4.0,88,0.00,,---,0.00,0.00,VWS V14.01,2013-01-28 10:07:00,
2013-01-28 04:12:00,54.9,51.4,29.96,SSW,200,0.0,5.0,88,0.00,,---,0.00,0.00,VWS V14.01,2013-01-28 10:12:00,
2013-01-28 04:17:00,54.9,51.4,29.96,SW,223,0.0,7.0,88,0.00,,---,0.00,0.00,VWS V14.01,2013-01-28 10:17:00,
2013-01-28 04:22:00,54.9,51.4,29.96,South,176,0.0,0.0,88,0.00,,---,0.00,0.00,VWS V14.01,2013-01-28 10:22:00,
2013-01-28 04:27:00,54.9,51.4,29.96,SW,225,1.0,4.0,88,0.00,,---,0.00,0.00,VWS V14.01,2013-01-28 10:27:00,
2013-01-28 04:32:00,54.9,51.4,29.96,South,169,0.0,4.0,88,0.00,,---,0.00,0.00,VWS V14.01,2013-01-28 10:32:00,
2013-01-28 04:37:00,55.0,51.5,29.96,SW,233,1.0,4.0,88,0.00,,---,0.00,0.00,VWS V14.01,2013-01-28 10:37:00,
2013-01-28 04:42:00,55.0,51.5,29.96,SSW,203,4.0,4.0,88,0.00,,---,0.00,0.00,VWS V14.01,2013-01-28 10:42:00,
2013-01-28 04:47:00,55.0,51.8,29.96,SSW,211,6.0,7.0,89,0.00,,---,0.00,0.00,VWS V14.01,2013-01-28 10:47:00,
2013-01-28 04:52:00,55.0,51.8,29.96,South,182,0.0,4.0,89,0.00,,---,0.00,0.00,VWS V14.01,2013-01-28 10:52:00,
2013-01-28 04:57:00,55.0,51.8,29.96,SSW,205,0.0,6.0,89,0.00,,---,0.00,0.00,VWS V14.01,2013-01-28 10:57:00,
2013-01-28 05:02:00,55.0,51.8,29.96,South,172,0.0,3.0,89,0.00,,---,0.00,0.00,VWS V14.01,2013-01-28 11:02:00,
2013-01-28 05:07:00,54.9,51.7,29.95,SSE,153,0.0,4.0,89,0.00,,---,0.00,0.00,VWS V14.01,2013-01-28 11:07:00,
2013-01-28 05:12:00,54.9,51.7,29.96,South,182,0.0,3.0,89,0.00,,---,0.00,0.00,VWS V14.01,2013-01-28 11:12:00,
2013-01-28 05:17:00,54.8,51.6,29.96,SSW,207,1.0,1.0,89,0.00,,---,0.00,0.00,VWS V14.01,2013-01-28 11:17:00,
2013-01-28 05:22:00,54.9,51.7,29.96,SSW,204,0.0,0.0,89,0.00,,---,0.00,0.00,VWS V14.01,2013-01-28 11:22:00,
2013-01-28 05:27:00,54.8,51.6,29.96,SSW,204,0.0,3.0,89,0.00,,---,0.00,0.00,VWS V14.01,2013-01-28 11:27:00,
2013-01-28 05:32:00,54.8,51.6,29.96,SSE,163,1.0,2.0,89,0.00,,---,0.00,0.00,VWS V14.01,2013-01-28 11:32:00,
2013-01-28 05:37:00,54.9,51.7,29.96,South,187,0.0,0.0,89,0.00,,---,0.00,0.00,VWS V14.01,2013-01-28 11:37:00,
2013-01-28 05:42:00,54.9,51.7,29.96,South,187,0.0,1.0,89,0.00,,---,0.00,0.00,VWS V14.01,2013-01-28 11:42:00,
2013-01-28 05:47:00,54.9,51.7,29.96,SSE,162,0.0,2.0,89,0.00,,---,0.00,0.00,VWS V14.01,2013-01-28 11:47:00,
2013-01-28 05:52:00,54.9,51.7,29.96,SW,221,0.0,3.0,89,0.00,,---,0.00,0.00,VWS V14.01,2013-01-28 11:52:00,
2013-01-28 05:57:00,54.9,51.7,29.96,SW,215,0.0,0.0,89,0.00,,---,0.00,0.00,VWS V14.01,2013-01-28 11:57:00,
2013-01-28 06:02:00,54.9,51.7,29.96,SSW,210,0.0,0.0,89,0.00,,---,0.00,0.00,VWS V14.01,2013-01-28 12:02:00,
2013-01-28 06:07:00,54.9,51.7,29.97,SW,235,1.0,4.0,89,0.00,,---,0.00,0.00,VWS V14.01,2013-01-28 12:07:00,
2013-01-28 06:12:00,55.0,51.8,29.97,SW,223,0.0,1.0,89,0.00,,---,0.00,0.00,VWS V14.01,2013-01-28 12:12:00,
2013-01-28 06:17:00,55.0,51.8,29.97,SSW,192,0.0,2.0,89,0.00,,---,0.00,0.00,VWS V14.01,2013-01-28 12:17:00,
2013-01-28 06:22:00,55.0,51.8,29.97,SSW,207,0.0,2.0,89,0.00,,---,0.00,0.00,VWS V14.01,2013-01-28 12:22:00,
2013-01-28 06:27:00,55.1,51.9,29.97,SSW,203,0.0,0.0,89,0.00,,---,0.00,0.00,VWS V14.01,2013-01-28 12:27:00,
2013-01-28 06:32:00,55.1,51.9,29.97,SSW,207,0.0,3.0,89,0.00,,---,0.00,0.00,VWS V14.01,2013-01-28 12:32:00,
2013-01-28 06:37:00,55.1,51.9,29.97,SSW,207,0.0,0.0,89,0.00,,---,0.00,0.00,VWS V14.01,2013-01-28 12:37:00,
2013-01-28 06:42:00,55.1,51.9,29.97,SW,221,0.0,2.0,89,0.00,,---,0.00,0.00,VWS V14.01,2013-01-28 12:42:00,
2013-01-28 06:47:00,55.1,51.9,29.98,SW,218,0.0,0.0,89,0.00,,---,0.00,0.00,VWS V14.01,2013-01-28 12:47:00,
2013-01-28 06:52:00,55.1,51.9,29.98,SW,217,0.0,0.0,89,0.00,,---,0.00,0.00,VWS V14.01,2013-01-28 12:52:00,
2013-01-28 06:57:00,55.1,51.9,29.98,SSW,200,0.0,1.0,89,0.00,,---,0.00,0.00,VWS V14.01,2013-01-28 12:57:00,
2013-01-28 07:02:00,55.2,52.0,29.98,SSW,202,0.0,1.0,89,0.00,,---,0.00,0.00,VWS V14.01,2013-01-28 13:02:00,
2013-01-28 07:07:00,55.3,52.1,29.98,SSW,202,0.0,0.0,89,0.00,,---,0.00,0.00,VWS V14.01,2013-01-28 13:07:00,
2013-01-28 07:12:00,55.3,52.1,29.98,SSW,209,0.0,3.0,89,0.00,,---,0.00,0.00,VWS V14.01,2013-01-28 13:12:00,
2013-01-28 07:17:00,55.3,52.1,29.98,SSW,203,0.0,0.0,89,0.00,,---,0.00,0.00,VWS V14.01,2013-01-28 13:17:00,
2013-01-28 07:22:00,55.3,52.1,29.98,SSW,198,0.0,3.0,89,0.00,,---,0.00,0.00,VWS V14.01,2013-01-28 13:22:00,
2013-01-28 07:27:00,55.3,52.1,29.99,SSW,204,0.0,0.0,89,0.00,,---,0.00,0.00,VWS V14.01,2013-01-28 13:27:00,
2013-01-28 07:32:00,55.3,52.1,29.99,SSW,203,0.0,0.0,89,0.00,,---,0.00,0.00,VWS V14.01,2013-01-28 13:32:00,
2013-01-28 07:37:00,55.3,52.1,29.99,SSW,203,0.0,1.0,89,0.00,,---,0.00,5.00,VWS V14.01,2013-01-28 13:37:00,
2013-01-28 07:42:00,55.4,52.2,29.99,SSW,203,0.0,0.0,89,0.00,,---,0.00,9.00,VWS V14.01,2013-01-28 13:42:00,
2013-01-28 07:47:00,55.4,52.2,29.99,SSW,202,0.0,0.0,89,0.00,,---,0.00,12.00,VWS V14.01,2013-01-28 13:47:00,
2013-01-28 07:52:00,55.4,53.1,29.99,SSW,202,0.0,1.0,92,0.00,,---,0.00,14.00,VWS V14.01,2013-01-28 13:52:00,
2013-01-28 07:57:00,55.4,52.2,30.00,SSW,202,0.0,0.0,89,0.00,,---,0.00,18.00,VWS V14.01,2013-01-28 13:57:00,
2013-01-28 08:02:00,55.4,52.2,30.00,SSW,202,0.0,0.0,89,0.00,,---,0.00,21.00,VWS V14.01,2013-01-28 14:02:00,
2013-01-28 08:07:00,55.5,52.6,30.00,SSW,202,0.0,0.0,90,0.00,,---,0.00,19.00,VWS V14.01,2013-01-28 14:07:00,
2013-01-28 08:12:00,55.5,52.6,30.00,SSW,202,0.0,0.0,90,0.00,,---,0.00,21.00,VWS V14.01,2013-01-28 14:12:00,
2013-01-28 08:17:00,55.5,52.3,30.00,SSW,202,0.0,0.0,89,0.00,,---,0.00,25.00,VWS V14.01,2013-01-28 14:17:00,
2013-01-28 08:22:00,55.5,52.3,30.00,SSW,202,0.0,0.0,89,0.00,,---,0.00,33.00,VWS V14.01,2013-01-28 14:22:00,
2013-01-28 08:27:00,55.5,52.3,30.00,SSW,202,0.0,0.0,89,0.00,,---,0.00,32.00,VWS V14.01,2013-01-28 14:27:00,
2013-01-28 08:32:00,55.4,52.2,30.00,SSW,202,0.0,0.0,89,0.00,,---,0.00,37.00,VWS V14.01,2013-01-28 14:32:00,
2013-01-28 08:37:00,55.4,53.1,30.00,SSW,202,0.0,0.0,92,0.00,,---,0.00,46.00,VWS V14.01,2013-01-28 14:37:00,
2013-01-28 08:42:00,55.4,53.1,30.00,SSW,202,0.0,0.0,92,0.00,,---,0.00,62.00,VWS V14.01,2013-01-28 14:42:00,
2013-01-28 08:47:00,55.4,52.2,30.00,SSW,202,0.0,0.0,89,0.00,,---,0.00,54.00,VWS V14.01,2013-01-28 14:47:00,
2013-01-28 08:52:00,55.4,53.1,30.00,SSW,202,0.0,0.0,92,0.00,,---,0.00,63.00,VWS V14.01,2013-01-28 14:52:00,
2013-01-28 08:57:00,55.4,52.2,30.01,SSW,202,0.0,0.0,89,0.00,,---,0.00,53.00,VWS V14.01,2013-01-28 14:57:00,
2013-01-28 09:02:00,55.4,53.1,30.01,SSW,202,0.0,0.0,92,0.00,,---,0.00,63.00,VWS V14.01,2013-01-28 15:02:00,
2013-01-28 09:06:00,55.4,52.2,30.01,SSW,202,1.0,1.0,89,0.00,,---,0.00,60.00,VWS V14.01,2013-01-28 15:06:00,
2013-01-28 09:11:00,55.5,52.3,30.01,SSW,202,0.0,0.0,89,0.00,,---,0.00,60.00,VWS V14.01,2013-01-28 15:11:00,
2013-01-28 09:16:00,55.5,52.3,30.01,SSW,202,0.0,0.0,89,0.00,,---,0.00,76.00,VWS V14.01,2013-01-28 15:16:00,
2013-01-28 09:21:00,55.6,52.4,30.01,SSW,202,0.0,0.0,89,0.00,,---,0.00,93.00,VWS V14.01,2013-01-28 15:21:00,
2013-01-28 09:26:00,55.7,52.5,30.01,SSW,202,0.0,0.0,89,0.00,,---,0.00,98.00,VWS V14.01,2013-01-28 15:26:00,
2013-01-28 09:31:00,55.9,52.7,30.00,SSW,202,0.0,0.0,89,0.00,,---,0.00,125.00,VWS V14.01,2013-01-28 15:31:00,
2013-01-28 09:36:00,56.0,52.8,30.00,SSW,202,0.0,0.0,89,0.00,,---,0.00,190.00,VWS V14.01,2013-01-28 15:36:00,
2013-01-28 09:41:00,56.2,53.3,30.00,SSW,202,0.0,0.0,90,0.00,,---,0.00,186.00,VWS V14.01,2013-01-28 15:41:00,
2013-01-28 09:46:00,56.5,53.3,30.01,SSW,202,0.0,0.0,89,0.00,,---,0.00,144.00,VWS V14.01,2013-01-28 15:46:00,
2013-01-28 09:51:00,56.8,53.6,30.01,SSW,202,0.0,0.0,89,0.00,,---,0.00,139.00,VWS V14.01,2013-01-28 15:51:00,
2013-01-28 09:56:00,57.0,53.5,30.01,SSW,202,0.0,0.0,88,0.00,,---,0.00,107.00,VWS V14.01,2013-01-28 15:56:00,
2013-01-28 10:01:00,57.1,53.6,30.01,SSW,202,0.0,0.0,88,0.00,,---,0.00,146.00,VWS V14.01,2013-01-28 16:01:00,
2013-01-28 10:06:00,57.2,53.7,30.01,SSW,202,0.0,0.0,88,0.00,,---,0.00,128.00,VWS V14.01,2013-01-28 16:06:00,
2013-01-28 10:11:00,57.5,53.7,30.01,SSW,202,0.0,0.0,87,0.00,,---,0.00,142.00,VWS V14.01,2013-01-28 16:11:00,
2013-01-28 10:16:00,57.5,53.7,30.01,SSW,202,0.0,0.0,87,0.00,,---,0.00,149.00,VWS V14.01,2013-01-28 16:16:00,
2013-01-28 10:21:00,57.5,53.7,30.01,SSW,202,0.0,0.0,87,0.00,,---,0.00,163.00,VWS V14.01,2013-01-28 16:21:00,
2013-01-28 10:26:00,57.7,53.9,30.01,SSW,202,0.0,0.0,87,0.00,,---,0.00,139.00,VWS V14.01,2013-01-28 16:26:00,
2013-01-28 10:31:00,57.8,53.7,30.01,SSW,202,0.0,0.0,86,0.00,,---,0.00,188.00,VWS V14.01,2013-01-28 16:31:00,
2013-01-28 10:36:00,57.8,53.7,30.01,SSW,202,0.0,0.0,86,0.00,,---,0.00,214.00,VWS V14.01,2013-01-28 16:36:00,
2013-01-28 10:41:00,57.8,53.7,30.01,SSW,202,0.0,0.0,86,0.00,,---,0.00,211.00,VWS V14.01,2013-01-28 16:41:00,
2013-01-28 10:46:00,58.0,53.8,30.01,SSW,202,0.0,1.0,86,0.00,,---,0.00,239.00,VWS V14.01,2013-01-28 16:46:00,
2013-01-28 10:51:00,58.1,53.9,30.01,SSW,202,0.0,0.0,86,0.00,,---,0.00,179.00,VWS V14.01,2013-01-28 16:51:00,
2013-01-28 10:56:00,58.2,54.0,30.01,SSW,202,0.0,0.0,86,0.00,,---,0.00,171.00,VWS V14.01,2013-01-28 16:56:00,
2013-01-28 11:01:00,58.3,54.1,30.00,SSW,202,0.0,0.0,86,0.00,,---,0.00,176.00,VWS V14.01,2013-01-28 17:01:00,
2013-01-28 11:06:00,58.3,54.1,30.00,SSW,202,0.0,0.0,86,0.00,,---,0.00,171.00,VWS V14.01,2013-01-28 17:06:00,
2013-01-28 11:11:00,58.4,53.9,30.00,SSW,202,0.0,0.0,85,0.00,,---,0.00,132.00,VWS V14.01,2013-01-28 17:11:00,
2013-01-28 11:16:00,58.4,54.2,30.00,SSW,202,0.0,0.0,86,0.00,,---,0.00,137.00,VWS V14.01,2013-01-28 17:16:00,
2013-01-28 11:21:00,58.6,54.4,30.00,SSW,202,0.0,0.0,86,0.00,,---,0.00,146.00,VWS V14.01,2013-01-28 17:21:00,
2013-01-28 11:26:00,58.8,54.6,30.00,SSW,202,0.0,0.0,86,0.00,,---,0.00,185.00,VWS V14.01,2013-01-28 17:26:00,
2013-01-28 11:31:00,59.0,54.5,30.00,SSW,202,0.0,2.0,85,0.00,,---,0.00,156.00,VWS V14.01,2013-01-28 17:31:00,
2013-01-28 11:36:00,59.1,54.9,29.99,SSW,202,0.0,0.0,86,0.00,,---,0.00,269.00,VWS V14.01,2013-01-28 17:36:00,
2013-01-28 11:41:00,59.7,55.5,29.99,South,183,0.0,4.0,86,0.00,,---,0.00,339.00,VWS V14.01,2013-01-28 17:41:00,
2013-01-28 11:46:00,60.2,55.7,29.99,South,184,0.0,0.0,85,0.00,,---,0.00,257.00,VWS V14.01,2013-01-28 17:46:00,
2013-01-28 11:51:00,60.4,55.9,29.98,South,184,0.0,0.0,85,0.00,,---,0.00,269.00,VWS V14.01,2013-01-28 17:51:00,
2013-01-28 11:56:00,60.9,56.4,29.98,South,182,0.0,2.0,85,0.00,,---,0.00,246.00,VWS V14.01,2013-01-28 17:56:00,
2013-01-28 12:01:00,61.2,56.3,29.98,South,183,0.0,0.0,84,0.00,,---,0.00,244.00,VWS V14.01,2013-01-28 18:01:00,
2013-01-28 12:06:00,61.5,56.6,29.98,South,183,0.0,0.0,84,0.00,,---,0.00,264.00,VWS V14.01,2013-01-28 18:06:00,
2013-01-28 12:11:00,61.8,56.9,29.98,South,183,0.0,0.0,84,0.00,,---,0.00,213.00,VWS V14.01,2013-01-28 18:11:00,
2013-01-28 12:16:00,62.0,56.8,29.97,SE,142,2.0,5.0,83,0.00,,---,0.00,264.00,VWS V14.01,2013-01-28 18:16:00,
2013-01-28 12:21:00,62.0,56.8,29.97,SSE,160,1.0,1.0,83,0.00,,---,0.00,313.00,VWS V14.01,2013-01-28 18:21:00,
2013-01-28 12:26:00,62.3,57.1,29.97,SSE,158,0.0,3.0,83,0.00,,---,0.00,216.00,VWS V14.01,2013-01-28 18:26:00,
2013-01-28 12:31:00,62.4,57.2,29.96,SSE,165,0.0,1.0,83,0.00,,---,0.00,232.00,VWS V14.01,2013-01-28 18:31:00,
2013-01-28 12:36:00,62.5,57.3,29.96,South,187,0.0,0.0,83,0.00,,---,0.00,178.00,VWS V14.01,2013-01-28 18:36:00,
2013-01-28 12:41:00,62.6,57.4,29.96,SW,219,0.0,0.0,83,0.00,,---,0.00,118.00,VWS V14.01,2013-01-28 18:41:00,
2013-01-28 12:46:00,62.8,57.6,29.95,SW,219,0.0,0.0,83,0.00,,---,0.00,120.00,VWS V14.01,2013-01-28 18:46:00,
2013-01-28 12:51:00,62.8,57.6,29.95,SSE,154,0.0,1.0,83,0.00,,---,0.00,65.00,VWS V14.01,2013-01-28 18:51:00,
2013-01-28 12:56:00,62.7,57.5,29.95,SSE,154,0.0,0.0,83,0.00,,---,0.00,227.00,VWS V14.01,2013-01-28 18:56:00,
2013-01-28 13:01:00,62.7,57.5,29.95,SSE,153,0.0,0.0,83,0.00,,---,0.00,274.00,VWS V14.01,2013-01-28 19:01:00,
2013-01-28 13:06:00,62.8,57.6,29.95,SSW,205,0.0,0.0,83,0.00,,---,0.00,199.00,VWS V14.01,2013-01-28 19:06:00,
2013-01-28 13:11:00,63.0,57.8,29.94,SSW,205,0.0,0.0,83,0.00,,---,0.00,121.00,VWS V14.01,2013-01-28 19:11:00,
2013-01-28 13:16:00,63.1,57.9,29.94,SSW,192,0.0,0.0,83,0.00,,---,0.00,160.00,VWS V14.01,2013-01-28 19:16:00,
2013-01-28 13:21:00,63.2,58.0,29.94,South,190,1.0,2.0,83,0.00,,---,0.00,104.00,VWS V14.01,2013-01-28 19:21:00,
2013-01-28 13:26:00,63.2,58.0,29.94,South,190,0.0,0.0,83,0.00,,---,0.00,135.00,VWS V14.01,2013-01-28 19:26:00,
2013-01-28 13:31:00,63.3,58.1,29.93,South,190,0.0,0.0,83,0.00,,---,0.00,179.00,VWS V14.01,2013-01-28 19:31:00,
2013-01-28 13:36:00,63.4,58.2,29.93,ESE,123,3.0,3.0,83,0.00,,---,0.00,165.00,VWS V14.01,2013-01-28 19:36:00,
2013-01-28 13:41:00,63.4,58.2,29.93,SSE,163,2.0,2.0,83,0.00,,---,0.00,123.00,VWS V14.01,2013-01-28 19:41:00,
2013-01-28 13:46:00,63.4,58.2,29.93,SSE,163,0.0,0.0,83,0.00,,---,0.00,160.00,VWS V14.01,2013-01-28 19:46:00,
2013-01-28 13:51:00,63.4,58.2,29.92,SSE,163,0.0,0.0,83,0.00,,---,0.00,137.00,VWS V14.01,2013-01-28 19:51:00,
2013-01-28 13:56:00,63.5,58.2,29.92,SSE,163,0.0,0.0,83,0.00,,---,0.00,213.00,VWS V14.01,2013-01-28 19:56:00,
2013-01-28 14:01:00,63.7,58.5,29.92,SSE,163,0.0,0.0,83,0.00,,---,0.00,230.00,VWS V14.01,2013-01-28 20:01:00,
2013-01-28 14:06:00,63.9,58.6,29.91,SSE,163,0.0,1.0,83,0.00,,---,0.00,406.00,VWS V14.01,2013-01-28 20:06:00,
2013-01-28 14:11:00,64.2,58.6,29.91,SSE,163,0.0,0.0,82,0.00,,---,0.00,236.00,VWS V14.01,2013-01-28 20:11:00,
2013-01-28 14:16:00,64.4,58.8,29.92,SSE,163,2.0,2.0,82,0.00,,---,0.00,492.00,VWS V14.01,2013-01-28 20:16:00,
2013-01-28 14:21:00,64.7,59.1,29.92,SSE,159,2.0,4.0,82,0.00,,---,0.00,279.00,VWS V14.01,2013-01-28 20:21:00,
2013-01-28 14:26:00,64.9,59.3,29.91,SE,138,4.0,6.0,82,0.00,,---,0.00,387.00,VWS V14.01,2013-01-28 20:26:00,
2013-01-28 14:31:00,65.0,59.4,29.91,SE,138,1.0,3.0,82,0.00,,---,0.00,299.00,VWS V14.01,2013-01-28 20:31:00,
2013-01-28 14:36:00,65.2,59.2,29.91,SSE,150,3.0,3.0,81,0.00,,---,0.00,258.00,VWS V14.01,2013-01-28 20:36:00,
2013-01-28 14:41:00,65.4,59.4,29.91,SSE,161,0.0,1.0,81,0.00,,---,0.00,299.00,VWS V14.01,2013-01-28 20:41:00,
2013-01-28 14:46:00,65.6,59.6,29.91,SSE,161,1.0,4.0,81,0.00,,---,0.00,272.00,VWS V14.01,2013-01-28 20:46:00,
2013-01-28 14:51:00,65.7,59.7,29.91,SSE,160,1.0,3.0,81,0.00,,---,0.00,325.00,VWS V14.01,2013-01-28 20:51:00,
2013-01-28 14:56:00,65.8,59.8,29.91,SSE,159,2.0,3.0,81,0.00,,---,0.00,294.00,VWS V14.01,2013-01-28 20:56:00,
2013-01-28 15:01:00,65.9,59.9,29.91,SSE,159,0.0,1.0,81,0.00,,---,0.00,297.00,VWS V14.01,2013-01-28 21:01:00,
2013-01-28 15:06:00,65.9,59.6,29.91,SSE,158,1.0,3.0,80,0.00,,---,0.00,306.00,VWS V14.01,2013-01-28 21:06:00,
2013-01-28 15:11:00,65.8,59.8,29.91,ESE,111,3.0,3.0,81,0.00,,---,0.00,336.00,VWS V14.01,2013-01-28 21:11:00,
2013-01-28 15:16:00,65.8,59.8,29.91,SE,136,2.0,3.0,81,0.00,,---,0.00,338.00,VWS V14.01,2013-01-28 21:16:00,
2013-01-28 15:21:00,66.1,60.1,29.90,SE,134,0.0,2.0,81,0.00,,---,0.00,295.00,VWS V14.01,2013-01-28 21:21:00,
2013-01-28 15:26:00,66.2,60.2,29.90,SE,132,0.0,1.0,81,0.00,,---,0.00,285.00,VWS V14.01,2013-01-28 21:26:00,
2013-01-28 15:31:00,66.4,60.4,29.90,SE,134,3.0,4.0,81,0.00,,---,0.00,253.00,VWS V14.01,2013-01-28 21:31:00,
2013-01-28 15:36:00,66.5,60.2,29.90,SE,134,0.0,1.0,80,0.00,,---,0.00,232.00,VWS V14.01,2013-01-28 21:36:00,
2013-01-28 15:41:00,66.7,60.3,29.90,SE,136,2.0,2.0,80,0.00,,---,0.00,188.00,VWS V14.01,2013-01-28 21:41:00,
2013-01-28 15:46:00,66.9,60.5,29.90,SE,136,2.0,4.0,80,0.00,,---,0.00,178.00,VWS V14.01,2013-01-28 21:46:00,
2013-01-28 15:51:00,66.9,60.5,29.90,SE,137,3.0,3.0,80,0.00,,---,0.00,195.00,VWS V14.01,2013-01-28 21:51:00,
2013-01-28 15:56:00,66.9,60.5,29.90,SE,139,3.0,4.0,80,0.00,,---,0.00,214.00,VWS V14.01,2013-01-28 21:56:00,
2013-01-28 16:01:00,67.0,60.6,29.89,SE,139,0.0,0.0,80,0.00,,---,0.00,209.00,VWS V14.01,2013-01-28 22:01:00,
2013-01-28 16:06:00,67.1,60.7,29.89,SE,139,2.0,4.0,80,0.00,,---,0.00,192.00,VWS V14.01,2013-01-28 22:06:00,
2013-01-28 16:11:00,67.2,60.8,29.89,SE,125,0.0,0.0,80,0.00,,---,0.00,155.00,VWS V14.01,2013-01-28 22:11:00,
2013-01-28 16:16:00,67.2,60.8,29.89,ESE,123,1.0,3.0,80,0.00,,---,0.00,137.00,VWS V14.01,2013-01-28 22:16:00,
2013-01-28 16:21:00,67.2,60.8,29.89,SE,140,1.0,1.0,80,0.00,,---,0.00,109.00,VWS V14.01,2013-01-28 22:21:00,
2013-01-28 16:26:00,67.2,60.8,29.89,SE,140,2.0,2.0,80,0.00,,---,0.00,118.00,VWS V14.01,2013-01-28 22:26:00,
2013-01-28 16:31:00,67.1,60.7,29.89,SE,139,1.0,2.0,80,0.00,,---,0.00,88.00,VWS V14.01,2013-01-28 22:31:00,
2013-01-28 16:36:00,67.1,60.7,29.88,SE,139,1.0,2.0,80,0.00,,---,0.00,84.00,VWS V14.01,2013-01-28 22:36:00,
2013-01-28 16:41:00,67.0,60.6,29.88,SE,136,2.0,2.0,80,0.00,,---,0.00,69.00,VWS V14.01,2013-01-28 22:41:00,
2013-01-28 16:46:00,66.9,60.5,29.88,ESE,119,1.0,1.0,80,0.00,,---,0.00,46.00,VWS V14.01,2013-01-28 22:46:00,
2013-01-28 16:51:00,66.7,60.3,29.88,SE,124,1.0,2.0,80,0.00,,---,0.00,33.00,VWS V14.01,2013-01-28 22:51:00,
2013-01-28 16:56:00,66.5,60.2,29.88,SE,129,0.0,2.0,80,0.00,,---,0.00,26.00,VWS V14.01,2013-01-28 22:56:00,
2013-01-28 17:01:00,66.3,60.3,29.88,SE,130,0.0,0.0,81,0.00,,---,0.00,19.00,VWS V14.01,2013-01-28 23:01:00,
2013-01-28 17:06:00,66.0,60.0,29.88,SE,128,0.0,0.0,81,0.00,,---,0.00,14.00,VWS V14.01,2013-01-28 23:06:00,
2013-01-28 17:11:00,65.7,59.7,29.88,SE,130,0.0,0.0,81,0.00,,---,0.00,11.00,VWS V14.01,2013-01-28 23:11:00,
2013-01-28 17:16:00,65.4,59.8,29.88,ESE,123,0.0,0.0,82,0.00,,---,0.00,5.00,VWS V14.01,2013-01-28 23:16:00,
2013-01-28 17:21:00,65.2,59.6,29.88,ESE,118,1.0,2.0,82,0.00,,---,0.00,0.00,VWS V14.01,2013-01-28 23:21:00,
2013-01-28 17:25:00,64.9,59.3,29.88,ESE,112,0.0,1.0,82,0.00,,---,0.00,0.00,VWS V14.01,2013-01-28 23:25:00,
2013-01-28 17:30:00,64.7,59.4,29.88,ESE,118,2.0,2.0,83,0.00,,---,0.00,0.00,VWS V14.01,2013-01-28 23:30:00,
2013-01-28 17:35:00,64.5,59.2,29.88,ESE,123,2.0,2.0,83,0.00,,---,0.00,0.00,VWS V14.01,2013-01-28 23:35:00,
2013-01-28 17:40:00,64.3,59.0,29.88,ESE,114,5.0,7.0,83,0.00,,---,0.00,0.00,VWS V14.01,2013-01-28 23:40:00,
2013-01-28 17:45:00,64.0,58.7,29.89,SE,140,1.0,7.0,83,0.00,,---,0.00,0.00,VWS V14.01,2013-01-28 23:45:00,
2013-01-28 17:50:00,63.8,58.9,29.89,SE,135,2.0,2.0,84,0.00,,---,0.00,0.00,VWS V14.01,2013-01-28 23:50:00,
2013-01-28 17:55:00,63.6,58.7,29.88,SE,127,1.0,2.0,84,0.00,,---,0.00,0.00,VWS V14.01,2013-01-28 23:55:00,
2013-01-28 18:00:00,63.4,58.5,29.88,SE,127,0.0,2.0,84,0.00,,---,0.00,0.00,VWS V14.01,2013-01-29 00:00:00,
2013-01-28 18:05:00,63.2,58.3,29.88,SE,126,0.0,1.0,84,0.00,,---,0.00,0.00,VWS V14.01,2013-01-29 00:05:00,
2013-01-28 18:10:00,63.1,58.5,29.88,SE,125,0.0,2.0,85,0.00,,---,0.00,0.00,VWS V14.01,2013-01-29 00:10:00,
2013-01-28 18:15:00,63.0,58.4,29.88,SE,125,0.0,0.0,85,0.00,,---,0.00,0.00,VWS V14.01,2013-01-29 00:15:00,
2013-01-28 18:20:00,62.8,58.2,29.88,ESE,121,2.0,3.0,85,0.00,,---,0.00,0.00,VWS V14.01,2013-01-29 00:20:00,
2013-01-28 18:25:00,62.7,58.1,29.88,SE,137,3.0,8.0,85,0.00,,---,0.00,0.00,VWS V14.01,2013-01-29 00:25:00,
2013-01-28 18:30:00,62.8,58.2,29.88,SSE,149,1.0,4.0,85,0.00,,---,0.00,0.00,VWS V14.01,2013-01-29 00:30:00,
2013-01-28 18:35:00,63.1,58.5,29.88,SSE,148,3.0,5.0,85,0.00,,---,0.00,0.00,VWS V14.01,2013-01-29 00:35:00,
2013-01-28 18:40:00,63.2,58.6,29.88,SSE,149,0.0,5.0,85,0.00,,---,0.00,0.00,VWS V14.01,2013-01-29 00:40:00,
2013-01-28 18:45:00,63.3,58.4,29.88,SSE,150,0.0,5.0,84,0.00,,---,0.00,0.00,VWS V14.01,2013-01-29 00:45:00,
2013-01-28 18:50:00,63.3,58.4,29.88,SSE,150,0.0,3.0,84,0.00,,---,0.00,0.00,VWS V14.01,2013-01-29 00:50:00,
2013-01-28 18:55:00,63.2,58.3,29.88,SSE,150,0.0,1.0,84,0.00,,---,0.00,0.00,VWS V14.01,2013-01-29 00:55:00,
2013-01-28 19:00:00,63.2,58.3,29.88,SSE,149,0.0,6.0,84,0.00,,---,0.00,0.00,VWS V14.01,2013-01-29 01:00:00,
2013-01-28 19:05:00,63.2,58.3,29.88,SSE,148,2.0,5.0,84,0.00,,---,0.00,0.00,VWS V14.01,2013-01-29 01:05:00,
2013-01-28 19:10:00,63.1,58.2,29.88,SSE,148,0.0,3.0,84,0.00,,---,0.00,0.00,VWS V14.01,2013-01-29 01:10:00,
2013-01-28 19:15:00,63.1,58.2,29.88,SSE,148,0.0,2.0,84,0.00,,---,0.00,0.00,VWS V14.01,2013-01-29 01:15:00,
2013-01-28 19:20:00,63.1,58.2,29.88,SSE,148,0.0,3.0,84,0.00,,---,0.00,0.00,VWS V14.01,2013-01-29 01:20:00,
2013-01-28 19:25:00,63.0,58.1,29.88,SSE,148,0.0,4.0,84,0.00,,---,0.00,0.00,VWS V14.01,2013-01-29 01:25:00,
2013-01-28 19:30:00,62.9,58.0,29.88,SSE,148,0.0,4.0,84,0.00,,---,0.00,0.00,VWS V14.01,2013-01-29 01:30:00,
2013-01-28 19:35:00,62.9,58.0,29.88,SSE,148,1.0,6.0,84,0.00,,---,0.00,0.00,VWS V14.01,2013-01-29 01:35:00,
2013-01-28 19:40:00,62.9,58.0,29.87,SSE,148,0.0,3.0,84,0.00,,---,0.00,0.00,VWS V14.01,2013-01-29 01:40:00,
2013-01-28 19:45:00,62.9,58.0,29.87,SSE,148,0.0,4.0,84,0.00,,---,0.00,0.00,VWS V14.01,2013-01-29 01:45:00,
2013-01-28 19:50:00,63.0,58.1,29.87,SE,146,2.0,5.0,84,0.00,,---,0.00,0.00,VWS V14.01,2013-01-29 01:50:00,
2013-01-28 19:55:00,63.0,58.1,29.87,SE,145,2.0,4.0,84,0.00,,---,0.00,0.00,VWS V14.01,2013-01-29 01:55:00,
2013-01-28 20:00:00,63.2,58.3,29.87,SE,144,2.0,4.0,84,0.00,,---,0.00,0.00,VWS V14.01,2013-01-29 02:00:00,
2013-01-28 20:05:00,63.2,58.0,29.86,SE,144,0.0,5.0,83,0.00,,---,0.00,0.00,VWS V14.01,2013-01-29 02:05:00,
2013-01-28 20:10:00,63.3,58.1,29.86,SE,145,1.0,4.0,83,0.00,,---,0.00,0.00,VWS V14.01,2013-01-29 02:10:00,
2013-01-28 20:15:00,63.3,58.1,29.86,SSE,157,2.0,6.0,83,0.00,,---,0.00,0.00,VWS V14.01,2013-01-29 02:15:00,
2013-01-28 20:20:00,63.3,57.7,29.86,SE,145,2.0,9.0,82,0.00,,---,0.00,0.00,VWS V14.01,2013-01-29 02:20:00,
2013-01-28 20:25:00,63.3,57.7,29.86,SE,143,1.0,10.0,82,0.00,,---,0.00,0.00,VWS V14.01,2013-01-29 02:25:00,
2013-01-28 20:30:00,63.3,57.7,29.86,SSE,148,4.0,9.0,82,0.00,,---,0.00,0.00,VWS V14.01,2013-01-29 02:30:00,
2013-01-28 20:35:00,63.3,57.7,29.86,SE,145,4.0,7.0,82,0.00,,---,0.00,0.00,VWS V14.01,2013-01-29 02:35:00,
2013-01-28 20:40:00,63.4,57.8,29.86,SSE,148,4.0,6.0,82,0.00,,---,0.00,0.00,VWS V14.01,2013-01-29 02:40:00,
2013-01-28 20:45:00,63.4,57.8,29.85,SSE,148,0.0,7.0,82,0.00,,---,0.00,0.00,VWS V14.01,2013-01-29 02:45:00,
2013-01-28 20:50:00,63.4,57.5,29.85,SE,142,5.0,9.0,81,0.00,,---,0.00,0.00,VWS V14.01,2013-01-29 02:50:00,
2013-01-28 20:55:00,63.4,57.5,29.85,SE,136,3.0,8.0,81,0.00,,---,0.00,0.00,VWS V14.01,2013-01-29 02:55:00,
2013-01-28 21:00:00,63.4,57.5,29.85,SE,141,4.0,10.0,81,0.00,,---,0.00,0.00,VWS V14.01,2013-01-29 03:00:00,
2013-01-28 21:05:00,63.4,57.5,29.85,SE,145,4.0,7.0,81,0.00,,---,0.00,0.00,VWS V14.01,2013-01-29 03:05:00,
2013-01-28 21:10:00,63.4,57.5,29.85,SSE,148,7.0,9.0,81,0.00,,---,0.00,0.00,VWS V14.01,2013-01-29 03:10:00,
2013-01-28 21:15:00,63.2,57.3,29.85,SE,143,0.0,5.0,81,0.00,,---,0.00,0.00,VWS V14.01,2013-01-29 03:15:00,
2013-01-28 21:20:00,63.1,57.2,29.84,SSE,159,8.0,8.0,81,0.00,,---,0.00,0.00,VWS V14.01,2013-01-29 03:20:00,
2013-01-28 21:25:00,63.0,57.1,29.84,SSE,159,5.0,10.0,81,0.00,,---,0.00,0.00,VWS V14.01,2013-01-29 03:25:00,
2013-01-28 21:30:00,62.9,57.0,29.84,SE,145,0.0,6.0,81,0.00,,---,0.00,0.00,VWS V14.01,2013-01-29 03:30:00,
2013-01-28 21:35:00,62.9,57.3,29.84,SE,143,2.0,11.0,82,0.00,,---,0.00,0.00,VWS V14.01,2013-01-29 03:35:00,
2013-01-28 21:40:00,62.9,57.3,29.84,SE,145,2.0,10.0,82,0.00,,---,0.00,0.00,VWS V14.01,2013-01-29 03:40:00,
2013-01-28 21:45:00,62.9,57.3,29.84,SE,143,6.0,9.0,82,0.00,,---,0.00,0.00,VWS V14.01,2013-01-29 03:45:00,
2013-01-28 21:50:00,62.9,57.0,29.84,SE,141,4.0,11.0,81,0.00,,---,0.00,0.00,VWS V14.01,2013-01-29 03:50:00,
2013-01-28 21:55:00,62.9,57.0,29.84,SE,146,3.0,9.0,81,0.00,,---,0.00,0.00,VWS V14.01,2013-01-29 03:55:00,
2013-01-28 22:00:00,62.8,56.9,29.84,SSE,157,2.0,7.0,81,0.00,,---,0.00,0.00,VWS V14.01,2013-01-29 04:00:00,
2013-01-28 22:05:00,62.9,57.0,29.84,SSE,159,1.0,6.0,81,0.00,,---,0.00,0.00,VWS V14.01,2013-01-29 04:05:00,
2013-01-28 22:10:00,63.3,57.4,29.84,SSE,160,0.0,11.0,81,0.00,,---,0.00,0.00,VWS V14.01,2013-01-29 04:10:00,
2013-01-28 22:15:00,63.7,57.4,29.84,SSE,148,0.0,10.0,80,0.00,,---,0.00,0.00,VWS V14.01,2013-01-29 04:15:00,
2013-01-28 22:20:00,64.0,57.7,29.84,SSE,167,0.0,9.0,80,0.00,,---,0.00,0.00,VWS V14.01,2013-01-29 04:20:00,
2013-01-28 22:25:00,64.1,57.5,29.84,South,186,3.0,11.0,79,0.00,,---,0.00,0.00,VWS V14.01,2013-01-29 04:25:00,
2013-01-28 22:30:00,64.4,57.8,29.83,SSE,159,0.0,12.0,79,0.00,,---,0.00,0.00,VWS V14.01,2013-01-29 04:30:00,
2013-01-28 22:35:00,64.5,57.8,29.83,SW,217,2.0,7.0,79,0.00,,---,0.00,0.00,VWS V14.01,2013-01-29 04:35:00,
2013-01-28 22:40:00,64.6,58.0,29.83,SSE,150,1.0,12.0,79,0.00,,---,0.00,0.00,VWS V14.01,2013-01-29 04:40:00,
2013-01-28 22:45:00,64.7,57.7,29.83,SE,144,2.0,10.0,78,0.00,,---,0.00,0.00,VWS V14.01,2013-01-29 04:45:00,
2013-01-28 22:50:00,64.7,57.7,29.83,SE,146,7.0,13.0,78,0.00,,---,0.00,0.00,VWS V14.01,2013-01-29 04:50:00,
2013-01-28 22:55:00,64.6,57.6,29.83,SE,136,4.0,7.0,78,0.00,,---,0.00,0.00,VWS V14.01,2013-01-29 04:55:00,
2013-01-28 23:00:00,64.5,57.8,29.83,SSE,148,4.0,9.0,79,0.00,,---,0.00,0.00,VWS V14.01,2013-01-29 05:00:00,
2013-01-28 23:02:00,64.5,57.8,29.83,SSE,160,1.0,4.0,79,0.00,,---,0.00,0.00,VWS V14.01,2013-01-29 05:02:00,
2013-01-28 23:03:00,64.5,57.8,29.83,SE,145,4.0,6.0,79,0.00,,---,0.00,0.00,VWS V14.01,2013-01-29 05:03:00,
2013-01-28 23:08:00,64.4,57.8,29.83,South,185,1.0,5.0,79,0.00,,---,0.00,0.00,VWS V14.01,2013-01-29 05:08:00,
2013-01-28 23:13:00,64.2,57.6,29.83,SE,146,0.0,5.0,79,0.00,,---,0.00,0.00,VWS V14.01,2013-01-29 05:13:00,
2013-01-28 23:18:00,64.1,57.5,29.83,SSE,157,1.0,5.0,79,0.00,,---,0.00,0.00,VWS V14.01,2013-01-29 05:18:00,
2013-01-28 23:23:00,64.0,57.4,29.83,South,179,0.0,7.0,79,0.00,,---,0.00,0.00,VWS V14.01,2013-01-29 05:23:00,
2013-01-28 23:28:00,63.9,57.6,29.83,SSE,148,0.0,5.0,80,0.00,,---,0.00,0.00,VWS V14.01,2013-01-29 05:28:00,
2013-01-28 23:33:00,63.8,57.5,29.83,South,172,0.0,5.0,80,0.00,,---,0.00,0.00,VWS V14.01,2013-01-29 05:33:00,
2013-01-28 23:38:00,63.7,57.4,29.83,SSE,153,0.0,3.0,80,0.00,,---,0.00,0.00,VWS V14.01,2013-01-29 05:38:00,
2013-01-28 23:43:00,63.7,57.4,29.83,SSE,150,0.0,7.0,80,0.00,,---,0.00,0.00,VWS V14.01,2013-01-29 05:43:00,
2013-01-28 23:48:00,63.6,57.3,29.83,SSE,168,0.0,4.0,80,0.00,,---,0.00,0.00,VWS V14.01,2013-01-29 05:48:00,
2013-01-28 23:53:00,63.6,57.7,29.83,SSE,154,1.0,4.0,81,0.00,,---,0.00,0.00,VWS V14.01,2013-01-29 05:53:00,
2013-01-28 23:58:00,63.5,57.6,29.83,SSE,148,5.0,5.0,81,0.00,,---,0.00,0.00,VWS V14.01,2013-01-29 05:58:00,